www.pogodaiklimat.ru

Погода и климат >> Архив погоды >> Россия >> Волгоградская область >> Волгоград


АРХИВ ПОГОДЫ в Волгограде

Время (UTC), дата Ветер
(напр.,м/с)
 
Видим.   Явления Облачность Т
(С)
Тd
(С)
f
(%)
Тe
(С)
Тes
(С)
Комфортность P
(гПа)
Po
(гПа)
Тmin
(С)
Tmax
(С)
R
(мм)
S
(см)
21 20.03 В 3 10 км 9/9 1000 м
[Sc]
+6.5 +3.4 81 +3 +3 тепло 1010.2 991.4
00 21.03 В 8 10 км 9/9 1000 м
[Sc]
+3.7 +2.0 89 -3 -3 по сезону 1010.4 991.4
03 21.03 В 4
{10}
10 км 9/9 150 м
[Sc]
+0.8 0.0 94 -5 -5 по сезону 1011.8 992.6 +0.7
06 21.03 СВ 3
{10}
10 км 9/9 210 м
[Sc]
+1.3 -0.4 88 -3 -3 по сезону 1011.8 992.6 +0.5
09 21.03 СВ 3 4000 м слабый ливневой дождь 9/9 150 м
[Cb calv]
+0.8 -0.1 94 -4 -3 по сезону 1012.0 992.8
12 21.03 С 4 4000 м слабый ливневой дождь со снегом 10/10 90 м
[Cb calv]
+0.3 0.0 98 -5 -5 холодно 1011.6 992.4
15 21.03 С 4 4000 м слабый ливневой снег 10/10 120 м
[Cb calv]
+0.2 -0.1 98 -5 -5 прохладно 1012.3 993.0 +1.4
18 21.03 С 4 4000 м слабый снег {ливн. осадки} 10/10 90 м
[Frnb Ns]
-0.8 -1.2 97 -7 -7 прохладно 1012.6 993.3
21 21.03 С 5 10 км слабый переохл. дождь (гололёд) {снег} 10/10 210 м
[Frnb Ns]
-0.8 -1.6 94 -7 -7 по сезону 1012.4 993.1
00 22.03 С 5 10 км {снег, дождь} 9/9 300 м
[St]
-0.8 -2.0 92 -7 -7 по сезону 1012.8 993.5
03 22.03 С 6 10 км 9/9 360 м
[St]
-1.5 -3.5 86 -9 -9 прохладно 1014.0 994.6 -1.5
06 22.03 С 5
{10}
10 км 9/9 300 м
[Cb calv]
-1.5 -3.4 87 -8 -8 прохладно 1014.9 995.5 -1.9
09 22.03 СВ 6
{10}
10 км 9/9 270 м
[St]
-1.1 -2.7 89 -8 -8 холодно 1015.6 996.2
12 22.03 СВ 6
{10}
10 км 10/10 210 м
[St]
-1.1 -2.3 92 -8 -8 очень
холодно
1016.7 997.3
15 22.03 СВ 4 10 км 10/10 150 м
[St]
-1.1 -1.8 95 -7 -7 холодно 1018.6 999.1 -0.8
18 22.03 СВ 6
{10}
4000 м слабая переохл. морось (гололёд) 10/10 150 м
[St]
-1.5 -2.3 94 -9 -9 холодно 1019.9 1000.4
21 22.03 СВ 4 4000 м дымка {морось} 10/10 90 м
[St]
-1.7 -2.2 96 -8 -8 прохладно 1020.4 1000.9
00 23.03 С 3 4000 м слабый снег {морось} 10/10 90 м
[Frnb Ns]
-1.5 -2.0 96 -7 -7 по сезону 1021.4 1001.8
03 23.03 С 2 4000 м в посл. час снег 10/8 450 м
[Sc As op]
-1.5 -2.2 95 -6 -6 по сезону 1022.6 1003.0 -1.9
06 23.03 В 3 10 км {снег} 10/10 210 м
[St]
-0.3 -1.2 94 -5 -5 по сезону 1023.4 1003.9
09 23.03 В 2 10 км 8/8 750 м
[Sc]
+2.0 +0.3 88 -1 +1 по сезону 1024.2 1004.8
12 23.03 ЮВ 2 10 км 9/9 500 м
[Sc]
+4.0 -0.2 74 +1 +2 по сезону 1024.2 1005.0
15 23.03 Ю 2 10 км 9/9 400 м
[St]
+3.5 +0.9 83 +1 +1 по сезону 1025.0 1005.7 +4.3
18 23.03 Ю 3 10 км 9/9 600 м
[Sc]
+3.0 +1.4 89 -1 -1 по сезону 1026.0 1006.7
21 23.03 Ю 3 10 км 9/0
[Ac trans]
+1.9 +0.8 92 -3 -3 по сезону 1026.2 1006.8
00 24.03 ЮЗ 3 10 км 9/9 1000 м
[Sc]
+2.1 +1.6 96 -2 -2 по сезону 1026.2 1006.8
03 24.03 З 3 10 км 9/9 1000 м
[Sc]
+1.8 +1.2 96 -3 -3 по сезону 1026.5 1007.1 +0.9
06 24.03 ЮЗ 5 10 км 9/5 1000 м
[Sc Ac trans]
+4.7 +2.3 84 -0 +1 по сезону 1026.9 1007.7
09 24.03 ЮЗ 5 10 км 9/9 1000 м
[Sc]
+7.2 +2.6 73 +3 +4 по сезону 1025.9 1006.9
12 24.03 ЮЗ 5 10 км 9/4 1000 м
[Sc Ac trans]
+8.2 +3.3 71 +5 +6 по сезону 1024.1 1005.2
15 24.03 ЮЗ 4 10 км 9/4 1000 м
[Sc Ac trans]
+8.1 +2.9 70 +5 +5 тепло 1022.6 1003.7 +9.4
18 24.03 Ю 5 10 км 9/0 2000 м
[Ac trans]
+7.3 +3.0 74 +4 +4 тепло 1021.3 1002.4
21 24.03 ЮЗ 8-11
{11}
10 км слабый ливневой дождь 9/9 1000 м
[Cb calv]
+6.1 +2.2 76 +1 +1 тепло 1019.1 1000.1
00 25.03 ЮЗ 8
{11}
10 км слабый ливневой дождь 9/9 1000 м
[Cb calv]
+5.5 +2.9 83 -0 -0 тепло 1016.7 997.7
03 25.03 ЮЗ 8-11
{10}
10 км слабый ливневой дождь 9/9 1000 м
[Cb calv]
+5.4 +3.5 88 -0 -0 по сезону 1013.6 994.7 +5.2
06 25.03 ЮЗ 11-14
{12}
10 км {ливн. осадки} 9/0
[Ac trans]
+8.6 +4.2 74 +3 +3 тепло 1011.7 993.0
09 25.03 З 7
{15}
4000 м слабый ливневой дождь 10/10 210 м
[Cb calv]
+6.6 +5.9 95 +1 +1 по сезону 1011.1 992.3
12 25.03 СЗ 6
{15}
10 км в посл. час ливневой дождь 9/9 1000 м
[Sc]
+5.7 +3.2 84 +1 +1 по сезону 1011.9 993.0
15 25.03 С 4
{12}
10 км 9/0
[Ac trans]
+3.9 -0.8 71 -0 -0 по сезону 1013.7 994.7 +9.1
18 25.03 З 2
{12}
10 км 3/3 1500 м
[Sc]
-0.2 -2.6 84 -4 -4 по сезону 1015.7 996.3
21 25.03 С 1 10 км ясно -2.0 -4.2 85 -4 -4 по сезону 1016.4 996.9
00 26.03 штиль 0 10 км ясно -1.8 -4.1 84 -3 -3 по сезону 1017.1 997.6
03 26.03 штиль 0 10 км ясно -2.7 -5.5 81 -4 -4 по сезону 1017.5 997.9 -2.8
06 26.03 СВ 3 10 км 4/0
[Ci fib]
+3.1 -3.0 64 -1 +4 по сезону 1018.4 999.2 -2.9
09 26.03 10 км н/о +5.2 -5.6 46 +2 +5 по сезону 1017.9 998.9
12 26.03 10 км н/о +6.2 -6.4 40 +5 +7 по сезону 1016.6 997.7
15 26.03 штиль 0 10 км 8/0
[Ac trans]
+5.2 -7.5 39 +5 +5 тепло 1016.4 997.4 +6.8
18 26.03 штиль 0 10 км 5/0
[Ac trans]
+3.0 -6.4 50 +3 +3 тепло 1016.9 997.7
21 26.03 ЮЗ 2 10 км 8/0
[Ac trans]
+0.9 -5.4 63 -2 -2 по сезону 1015.5 996.2
00 27.03 ЮЗ 2 4000 м слабый ливневой снег 8/8 600 м
[Cb calv]
+1.1 -0.9 86 -2 -2 по сезону 1013.6 994.4
03 27.03 Ю 3 4000 м слабый ливневой снег 9/9 750 м
[Cb calv]
+0.3 0.0 98 -5 -5 по сезону 1011.4 992.2 +0.1
06 27.03 ЮЗ 6 10 км в посл. час ливневой снег 10/10 90 м
[Cb calv]
+1.9 +1.5 97 -4 -4 по сезону 1009.5 990.4
09 27.03 ЮЗ 9-12
{13}
10 км в посл. час ливневой дождь 10/10 400 м
[Cb calv]
+4.9 +2.6 85 -1 -1 по сезону 1006.9 988.1
12 27.03 ЮЗ 9-11
{17}
10 км слабый ливневой дождь {гроза} 10/10 120 м
[Cb calv]
+2.5 +1.8 95 -5 -5 очень
холодно
1004.8 985.9
15 27.03 З 8-12
{15}
10 км слабый ливневой дождь 9/9 630 м
[Cb calv]
+3.1 +0.2 81 -3 -3 прохладно 1004.1 985.2 +6.0

 

Местоположение метеостанции Волгоград (Волгоградская область, Россия): широта 48.78 долгота 44.37 высота над уровнем моря 134 м.

В архиве по умолчанию представлена погода в Волгограде за последнюю неделю. Архивные данные за месяц целиком и за предыдущие месяцы, начиная с января 2011 года, Вы можете получить, выбрав интересующий диапазон дат из раскрывающегося списка и нажав кнопку "Ввод!".

Внимание! Время в таблицах - всемирное. Для получения местного времени необходимо прибавить поправку, которая в Волгограде равна 3 ч.

Смотрите также архив погоды в соседних городах и на ближайших метеорологических станциях:

Погода в Волгограде город (Волгоградская область, Россия) (14 км)
Погода в Иловле (Волгоградская область, Россия) (64 км)
Погода в Калаче-на-Дону (Волгоградская область, Россия) (66 км)
Погода в Малых Дербетах (Калмыкия, Россия) (98 км)
Погода в Нижнем Чире (Волгоградская область, Россия) (105 км)
Погода в Ольховке (Волгоградская область, Россия) (122 км)
Погода в Фролове (Волгоградская область, Россия) (124 км)
Погода в Серафимовиче (Волгоградская область, Россия) (148 км)
Погода в Черный Яр (Астраханская область, Россия) (151 км)
Погода в Котельниково (Волгоградская область, Россия) (157 км)

Пояснения к столбцам:

Ветер - указаны скорость ветра в м/с - средняя за 10 мин, порывы в срок и между сроками (в фигурных скобках) и направление, откуда дует ветер: С - северный, СВ - северо-восточный, В - восточный, ЮВ - юго-восточный, Ю - южный, ЮЗ - юго-западный, З - западный, СЗ - северо-западный.
Видимость - горизонтальная дальность видимости в метрах или километрах. При видимости от 1 до 10 км при отсутствии осадков обычно наблюдается дымка, при ухудшении видимости до 1 км и менее - туман. В сухую погоду видимость может ухудшаться дымом, пылью или мглою.
Явления - указаны атмосферные явления, наблюдавшиеся в срок или в последний час перед сроком; фигурными скобками обозначены явления, наблюдавшиеся между сроками (за 1-3 часа до срока); квадратными скобками обозначены град или гололедные отложения с указанием их диаметра в мм.
Облачность - указаны через наклонную черту общая и нижняя облачность в баллах и высота нижней границы облаков в метрах; квадратными скобками обозначены формы облаков: Ci - перистые, Cs - перисто-слоистые, Cc - перисто-кучевые, Ac - высококучевые, As - высокослоистые, Sc - слоисто-кучевые, Ns - слоисто-дождевые, Cu - кучевые, Cb - кучево-дождевые. Подробнее классификацию облаков см. в Атласе облаков (PDF).
T - Температура воздуха - температура, измеренная на высоте 2 м над землей.
Td - Температура точки росы - температура, при понижении до которой содержащийся в воздухе водяной пар достигнет насыщения.
f - Относительная влажность воздуха - влажноcть воздуха, измеренная на высоте 2 м над землей.
Te - Эффективная температура - температура, которую ощущает одетый по сезону человек в тени. Характеристика душности погоды. При расчете учитывается влияние влажности воздуха и скорости ветра на теплоощущения человека.
Tes - Эффективная температура на солнце - температура, которую ощущает человек, с поправкой на солнечный нагрев. Характеристика знойности погоды. Зависит от высоты солнца над горизонтом, облачности и скорости ветра. Ночью, в пасмурную погоду, а также при ветре 12 м/с и более поправка равна нулю.
P - Атмосферное давление - приведенное к уровню моря атмосферное давление.
Po - Атмосферное давление - измеренное на уровне метеостанции атмосферное давление.
Tmin - Минимальная температура - минимум температуры воздуха на высоте 2 м над землей.
Tmax - Максимальная температура - максимум температуры воздуха на высоте 2 м над землей.
R - Количество осадков - Количество выпавших осадков, мм. При наведении курсора мыши на число - период времени, за который выпало указанное количество осадков.
S - Снежный покров - Высота снежного покрова, см. При наведении курсора мыши на число - состояние снежного покрова и степень покрытия местности в баллах.